Find Starlink 35597

NORAD ID: 66493 Int'l Des: 2025-263 Owner: SPXS Country: US Constellation: starlink operational
LEOCIRCULAR

現在のビュー

3D地球を読み込み中...

Starlink 35597について

説明を読み込み中...

次回通過

Passes for default location (London). Set your location on the main map for personalized predictions.

高度履歴

Loading altitude history...

軌道要素

1 66493U 25263J 26145.70140726 .00019057 00000-0 69995-3 0 9994
2 66493 42.9983 276.0602 0001167 310.9878 49.0873 15.27593551 30679
Epoch: May 25, 2026 • Age: 22 hours

現在のステータス

高度 483.0 km
速度 7.63 km/s
衛星直下点 27.49°N, 164.46°W
打ち上げ日 Nov 15, 2025
運用期間 0.5 years
タイプ internet

技術仕様

分類 Payload
質量 575.00 kg
乾燥質量 530.00 kg
総質量 575.00 kg
長さ 0.30 m
直径 4.10 m
スパン 29.00 m
形状 Box + pan
製造者 SPXS
バスタイプ Starlink V2MO
フェーズステータス In Orbit
所有者/国 SPXS/US

Most Searched